STARLINK-34120, 63898

Orbit data source: Space-Track

STARLINK-34120, 63898 is a payload satellite owned by SpaceX/Seattle (US) in LEO that was launched on Sat, 10 May 2025 UTC via an FALCON 9 launch vehicle from the Air Force Eastern Test Range (AFETR). Payload-class satellites include a variety of spacecraft equipped with specific instruments for various scientific and technological missions. These include communications satellites like Starlink; space stations such as the ISS; scientific satellites like the Hubble; Earth observation satellites from companies like Planet Labs, Umbra, and HawkEye 360; GPS; miniature CubeSats for education and research; and military/defense satellites.

Loading next visibility...
Identifier
63898, 2025-095J
Orbit
LEO
Country
Flag of USUS
Related business
Manufacturer
SpaceX/Seattle
Mission
Operational Commercial Communications
Bus & Motor
STARLINK V2MO, Unknown motor
Mass
575 kg wet, ~530 kg dry
Launch date (UTC)
2025-05-10 (1 year ago)
Launch vehicle
FALCON 9
Launch site
Air Force Eastern Test Range (AFETR)
Object type
Payload
Rocket body
Debris
Shape & HBR
Box + 2 Pan, 17.7 m
Radar Cross Section
36.964 m², Large (>1 m²)

Expand to show TLE details & history
Last TLE update: 10 hours ago

TLE from 10 hours ago
0 STARLINK-34120
1 63898U 25095J   26171.41479356  .00020802  00000-0  76308-3 0  9990
2 63898  43.0053 315.6258 0001772 284.4640  75.6015 15.27590280 63503
Epoch: 2026-06-20T09:57Z
TLE epoch observation values (Epoch: 2026-06-20T09:57:18.163Z)
Latitude
-0.00003°
Longitude
-102.32966°
Altitude
482.492 km
Speed
7.626 km/s
True Right ascension
21h 02m 30s
True Declination
0° 00' 00"
Sunlit
Object was in full shadow at epoch
Visualization orbit readout
Latitude
Unknown
Longitude
Unknown
Altitude
Unknown
Speed
Unknown
Apparent Right ascension
Unknown
Apparent Declination
Unknown
Sunlit
N/A
Visualization observer readout
Local Sidereal Time
07:17:52
Azimuth
Unknown
Elevation
Unknown
Doppler factor
Unknown
Orbital elements
Apogee altitude
486.179 km
Perigee altitude
483.746 km
Semi-major axis
6,863.1 km
Eccentricity
0.00018
Inclination
43.0053°
RAAN
315.6258°
Arg. of periapsis
284.464°
True anomaly
75.62117°
Mean anomaly
75.6015°
Eccentric anomaly
75.61133°
Mean motion
3.81736 °/min
Orbital period
94.31 mins
BSTAR
0.00076308
Loading maneuver chart data...
Computing Atmospheric mass density...
Loading historical data...
Loading historical data...
Loading historical data...
Loading historical data...
Loading historical data...
Loading historical data...
Loading historical data...

Documentation

Showing up to 5 results
|